Flag Weather past 2 weeks in Herten, North Rhine-Westphalia, Germany

Now
36 °F

Overcast.


Feels Like: 36 °F
Forecast: 36 / 44 °F
Wind: 2 mph from East

Location: Essen

Current Time: Nov 26, 2014 at 12:31:12 AM

Latest Report: Nov 26, 2014 at 12:00 AM


Visibility: 8 mi

Pressure: 30.15 "Hg

Humidity: 96%

Dew point: 35 °F

Location of HertenLocation

Historic Weather in Herten — Graph

°F

Herten temperature yesterday

Maximum temperature yesterday: 48 °F (at 3:00 PM)
Minimum temperature yesterday: 35 °F (at 8:00 AM)
Average temperature yesterday: 42 °F

Past Weeks' High & Low Weather Summary

 TemperatureHumidityPressure
High59 °F (Nov 23, 2:00 PM)100% (Nov 11, 7:00 AM)30.36 "Hg (Nov 11, 7:00 AM)
Low35 °F (Nov 21, 8:00 AM)57% (Nov 24, 2:00 PM)29.50 "Hg (Nov 16, 3:00 PM)
Average47 °F88%29.93 "Hg
* Reported Nov 10 11:00 PM — Nov 25 11:00 PM, Herten, Weather by CustomWeather, © 2014

Note: Actual official high and low records may vary slightly from our data, if they occured in-between our weather recording intervals... More about our weather records

Advertising

Herten weather history for previous 24 hours

 ConditionsComfort  
Time TempWeatherWind HumidityBarometerVisibility
11:00 PM
Nov 25
38 °FOvercast.3 mph91%30.17 "Hg11 mi
10:00 PM38 °FOvercast.3 mph91%30.16 "Hg13 mi
9:00 PM40 °FPassing clouds.3 mph88%30.18 "Hg19 mi
8:00 PM41 °FOvercast.3 mph83%30.19 "Hg22 mi
7:00 PM43 °FOvercast.5 mph81%30.19 "Hg22 mi
6:00 PM44 °FOvercast.5 mph83%30.19 "Hg15 mi
5:00 PM45 °FPassing clouds.3 mph81%30.21 "Hg13 mi
4:00 PM47 °FOvercast.3 mph73%30.21 "Hg22 mi
3:00 PM48 °FOvercast.6 mph66%30.22 "Hg25 mi
2:00 PM48 °FOvercast.5 mph66%30.24 "Hg34 mi
1:00 PM48 °FOvercast.5 mph66%30.26 "Hg22 mi
12:00 PM46 °FPassing clouds.5 mph69%30.29 "Hg19 mi
11:00 AM44 °FSunny.6 mph74%30.30 "Hg15 mi
10:00 AM41 °FSunny.5 mph80%30.31 "Hg16 mi
9:00 AM39 °FSunny.3 mph86%30.31 "Hg17 mi
8:00 AM35 °FClear.2 mph97%30.32 "Hg9 mi
7:00 AM40 °FPassing clouds.2 mph86%30.32 "Hg16 mi
6:00 AM41 °FPassing clouds.2 mph83%30.33 "Hg13 mi
5:00 AM39 °FPassing clouds.2 mph89%30.34 "Hg10 mi
4:00 AM39 °FPassing clouds.2 mph91%30.34 "Hg9 mi
3:00 AM36 °FPassing clouds.1 mph97%30.35 "Hg9 mi
2:00 AM42 °FClear.2 mph83%30.34 "Hg14 mi
1:00 AM40 °FPassing clouds.1 mph89%30.35 "Hg17 mi
12:00 AM40 °FOvercast.1 mph88%30.36 "Hg17 mi
Weather by CustomWeather, © 2014

See weather overviewHow to use our weather pages